TimeEDT,TemperatureF,Dew PointF,Humidity,Sea Level PressureIn,VisibilityMPH,Wind Direction,Wind SpeedMPH,Gust SpeedMPH,PrecipitationIn,Events,Conditions,WindDirDegrees,DateUTC
12:00 AM,43.3,42.1,95,30.29,10.0,Calm,Calm,-,N/A,,Clear,0,2013-10-29 04:00:00
12:20 AM,42.6,41.5,96,30.29,10.0,Calm,Calm,-,N/A,,Clear,0,2013-10-29 04:20:00
12:40 AM,42.4,41.5,97,30.29,10.0,Calm,Calm,-,N/A,,Clear,0,2013-10-29 04:40:00
1:00 AM,41.9,41.2,97,30.29,10.0,Calm,Calm,-,N/A,,Clear,0,2013-10-29 05:00:00
1:20 AM,41.2,40.3,97,30.29,10.0,Calm,Calm,-,N/A,,Clear,0,2013-10-29 05:20:00
1:40 AM,41.9,40.8,96,30.29,10.0,Calm,Calm,-,N/A,,Clear,0,2013-10-29 05:40:00
2:00 AM,41.5,40.5,96,30.29,10.0,Calm,Calm,-,N/A,,Clear,0,2013-10-29 06:00:00
2:20 AM,41.4,40.5,97,30.30,7.0,Calm,Calm,-,N/A,,Clear,0,2013-10-29 06:20:00
2:40 AM,41.0,40.3,97,30.30,10.0,Calm,Calm,-,N/A,,Clear,0,2013-10-29 06:40:00
3:00 AM,40.8,40.1,97,30.30,10.0,Calm,Calm,-,N/A,,Clear,0,2013-10-29 07:00:00
3:20 AM,41.9,41.0,97,30.30,10.0,Calm,Calm,-,N/A,,Clear,0,2013-10-29 07:20:00
3:40 AM,40.5,39.7,97,30.30,7.0,Calm,Calm,-,N/A,,Clear,0,2013-10-29 07:40:00
3:55 AM,40.5,39.9,98,30.31,7.0,Calm,Calm,-,N/A,,Clear,0,2013-10-29 07:55:00
4:20 AM,40.1,39.4,97,30.31,7.0,Calm,Calm,-,N/A,,Clear,0,2013-10-29 08:20:00
4:40 AM,39.4,39.0,99,30.32,4.0,Calm,Calm,-,N/A,,Clear,0,2013-10-29 08:40:00
5:00 AM,39.4,39.0,99,30.33,7.0,Calm,Calm,-,N/A,,Clear,0,2013-10-29 09:00:00
6:05 AM,39.2,38.8,99,30.34,7.0,Calm,Calm,-,N/A,,Clear,0,2013-10-29 10:05:00
6:25 AM,38.8,38.5,99,30.35,7.0,Calm,Calm,-,N/A,,Clear,0,2013-10-29 10:25:00
6:45 AM,38.5,38.3,99,30.35,5.0,Calm,Calm,-,N/A,,Clear,0,2013-10-29 10:45:00
7:05 AM,38.5,38.3,99,30.35,5.0,Calm,Calm,-,N/A,,Clear,0,2013-10-29 11:05:00
7:25 AM,38.3,38.1,99,30.35,7.0,Calm,Calm,-,N/A,,Clear,0,2013-10-29 11:25:00
7:45 AM,38.3,37.8,98,30.36,7.0,Calm,Calm,-,N/A,,Clear,0,2013-10-29 11:45:00
8:05 AM,38.5,38.3,99,30.37,5.0,Calm,Calm,-,N/A,,Clear,0,2013-10-29 12:05:00
8:25 AM,40.5,40.1,99,30.37,7.0,Calm,Calm,-,N/A,,Clear,0,2013-10-29 12:25:00
8:45 AM,42.6,41.4,95,30.37,10.0,Calm,Calm,-,N/A,,Clear,0,2013-10-29 12:45:00
9:05 AM,46.2,42.1,85,30.38,10.0,Calm,Calm,-,N/A,,Clear,0,2013-10-29 13:05:00
9:25 AM,48.6,40.8,75,30.38,10.0,North,3.5,-,N/A,,Clear,360,2013-10-29 13:25:00
9:45 AM,50.4,40.6,69,30.38,10.0,Calm,Calm,-,N/A,,Clear,0,2013-10-29 13:45:00
10:05 AM,52.3,41.9,68,30.38,10.0,Calm,Calm,-,N/A,,Clear,0,2013-10-29 14:05:00
10:25 AM,53.8,42.6,66,30.38,10.0,NE,4.6,-,N/A,,Clear,50,2013-10-29 14:25:00
10:45 AM,55.4,43.2,63,30.38,10.0,Calm,Calm,-,N/A,,Clear,0,2013-10-29 14:45:00
11:05 AM,56.1,44.2,64,30.39,10.0,NNE,3.5,-,N/A,,Clear,30,2013-10-29 15:05:00
11:25 AM,56.7,43.7,62,30.38,10.0,Calm,Calm,-,N/A,,Clear,0,2013-10-29 15:25:00
11:45 AM,58.8,44.6,59,30.38,10.0,Calm,Calm,-,N/A,,Clear,0,2013-10-29 15:45:00
12:05 PM,59.5,45.0,59,30.37,10.0,Calm,Calm,-,N/A,,Clear,0,2013-10-29 16:05:00
12:25 PM,60.8,45.5,57,30.36,10.0,Calm,Calm,-,N/A,,Clear,0,2013-10-29 16:25:00
12:45 PM,60.8,43.7,53,30.36,10.0,Calm,Calm,-,N/A,,Clear,0,2013-10-29 16:45:00
1:05 PM,61.9,43.7,51,30.35,10.0,Calm,Calm,-,N/A,,Clear,0,2013-10-29 17:05:00
1:25 PM,62.6,43.2,49,30.34,10.0,Calm,Calm,-,N/A,,Clear,0,2013-10-29 17:25:00
1:45 PM,64.0,43.3,47,30.34,10.0,Calm,Calm,-,N/A,,Clear,0,2013-10-29 17:45:00
2:00 PM,63.7,41.2,44,30.33,10.0,Calm,Calm,-,N/A,,Clear,0,2013-10-29 18:00:00
2:25 PM,64.6,38.8,39,30.33,10.0,North,3.5,-,N/A,,Clear,360,2013-10-29 18:25:00
2:45 PM,64.4,38.1,38,30.32,10.0,Calm,Calm,-,N/A,,Clear,0,2013-10-29 18:45:00
3:05 PM,64.9,38.7,38,30.31,10.0,Calm,Calm,-,N/A,,Clear,0,2013-10-29 19:05:00
3:25 PM,64.9,39.0,39,30.31,10.0,Calm,Calm,-,N/A,,Clear,0,2013-10-29 19:25:00
3:45 PM,65.1,39.2,39,30.32,10.0,Calm,Calm,-,N/A,,Clear,0,2013-10-29 19:45:00
4:05 PM,64.9,39.4,39,30.32,10.0,Calm,Calm,-,N/A,,Clear,0,2013-10-29 20:05:00
4:25 PM,64.9,39.4,39,30.32,10.0,Calm,Calm,-,N/A,,Clear,0,2013-10-29 20:25:00
4:45 PM,64.8,39.2,39,30.32,10.0,Calm,Calm,-,N/A,,Clear,0,2013-10-29 20:45:00
5:05 PM,64.6,39.2,39,30.31,10.0,Calm,Calm,-,N/A,,Clear,0,2013-10-29 21:05:00
5:25 PM,62.2,44.4,52,30.31,10.0,Calm,Calm,-,N/A,,Clear,0,2013-10-29 21:25:00
5:45 PM,59.9,45.3,59,30.31,10.0,Calm,Calm,-,N/A,,Clear,0,2013-10-29 21:45:00
6:05 PM,58.3,44.8,61,30.32,10.0,Calm,Calm,-,N/A,,Clear,0,2013-10-29 22:05:00
6:25 PM,57.2,45.5,65,30.32,10.0,Calm,Calm,-,N/A,,Clear,0,2013-10-29 22:25:00
6:45 PM,54.9,46.4,73,30.33,10.0,Calm,Calm,-,N/A,,Clear,0,2013-10-29 22:45:00
7:05 PM,53.1,46.9,80,30.33,10.0,Calm,Calm,-,N/A,,Clear,0,2013-10-29 23:05:00
7:25 PM,52.3,46.9,82,30.33,10.0,Calm,Calm,-,N/A,,Clear,0,2013-10-29 23:25:00
7:45 PM,50.9,46.9,86,30.33,10.0,Calm,Calm,-,N/A,,Clear,0,2013-10-29 23:45:00
8:05 PM,50.5,46.9,87,30.34,10.0,Calm,Calm,-,N/A,,Clear,0,2013-10-30 00:05:00
8:25 PM,50.0,47.3,90,30.34,10.0,Calm,Calm,-,N/A,,Clear,0,2013-10-30 00:25:00
8:45 PM,49.5,46.8,90,30.34,10.0,Calm,Calm,-,N/A,,Clear,0,2013-10-30 00:45:00
9:05 PM,49.3,46.6,90,30.34,10.0,Calm,Calm,-,N/A,,Clear,0,2013-10-30 01:05:00
9:25 PM,48.9,46.0,90,30.34,10.0,Calm,Calm,-,N/A,,Clear,0,2013-10-30 01:25:00
9:45 PM,48.6,46.0,91,30.35,10.0,Calm,Calm,-,N/A,,Clear,0,2013-10-30 01:45:00
10:05 PM,48.2,45.7,91,30.35,10.0,Calm,Calm,-,N/A,,Clear,0,2013-10-30 02:05:00
10:25 PM,48.2,46.4,93,30.35,10.0,Calm,Calm,-,N/A,,Clear,0,2013-10-30 02:25:00
10:45 PM,48.2,46.4,93,30.35,10.0,Calm,Calm,-,N/A,,Clear,0,2013-10-30 02:45:00
11:05 PM,48.2,46.2,93,30.35,10.0,Calm,Calm,-,N/A,,Clear,0,2013-10-30 03:05:00
11:25 PM,48.9,46.2,90,30.34,10.0,Calm,Calm,-,N/A,,Clear,0,2013-10-30 03:25:00
11:45 PM,48.7,45.9,90,30.34,10.0,Calm,Calm,-,N/A,,Clear,0,2013-10-30 03:45:00